Terminal Aerodrome Forecast
Issued by NWS Wichita, KS

Home | Current Version | Previous Version | Text Only | Print | Product List | Glossary On
Versions: 1 2 3 4 5 6 7 8 9 10 11 12 13 14 15 16 17 18 19
000
FTUS43 KICT 311352 AAB
TAFICT
TAF AMD
KICT 311352Z 3114/0112 04005KT P6SM VCSH SCT015 BKN035
     FM311800 05007KT P6SM VCTS BKN035CB
     FM010000 05005KT P6SM SCT015 BKN035
     FM010400 04005KT P6SM OVC015=

USA.gov is the U.S. government's official web portal to all federal, state and local government web resources and services.